Location: Observatory
(52.1446°N, 0.4624°W)
Time: 02:13:07
(UTC+00:00)

ISS - Pass Details

Date: 08 December 2021
Orbit: 413 x 422 km, 51.6° (Epoch: 28 January)

Event Time Altitude Azimuth Distance (km) Brightness Sun altitude
Rises 16:49:51 0° 282° (WNW) 2,389 1.0 -8.6°
Reaches altitude 10° 16:52:13 10° 268° (W) 1,518 0.3 -8.9°
Maximum altitude 16:55:01 24° 213° (SSW) 931 -1.2 -9.3°
Drops below altitude 10° 16:57:47 10° 157° (SSE) 1,507 -0.9 -9.7°
Enters shadow 17:03:42 -10° 135° (SE) 3,783 0.9 -10.5°
